Flag for Cote d'Ivoire (Ivory Coast) Weather past 2 weeks in Abidjan, Cote d'Ivoire (Ivory Coast)

Now
82 °F

Partly sunny.


Feels Like: 91 °F
Forecast: 76 / 88 °F
Wind: 7 mph from North

Location: Abidjan Airport

Current Time: Jan 27, 2015 at 11:30:53 AM

Latest Report: Jan 27, 2015 at 11:00 AM


Visibility: 4 mi

Pressure: 29.89 "Hg

Humidity: 84%

Dew point: 77 °F

Location of AbidjanLocation

Historic Weather in Abidjan — Graph

°F

Abidjan temperature yesterday

Maximum temperature yesterday: 90 °F (at 2:00 PM)
Minimum temperature yesterday: 75 °F (at 5:03 PM)
Average temperature yesterday: 82 °F

Past Weeks' High & Low Weather Summary

 TemperatureHumidityPressure
High90 °F (Jan 13, 2:00 PM)100% (Jan 14, 12:30 AM)29.98 "Hg (Jan 14, 12:30 AM)
Low68 °F (Jan 13, 1:30 AM)21% (Jan 13, 12:30 PM)29.77 "Hg (Jan 20, 2:30 PM)
Average82 °F80%29.87 "Hg
* Reported Jan 12 10:00 AM — Jan 27 10:30 AM, Abidjan, Weather by CustomWeather, © 2014

Note: Actual official high and low records may vary slightly from our data, if they occured in-between our weather recording intervals... More about our weather records

Advertising

Abidjan weather history for previous 24 hours

 ConditionsComfort  
Time TempWeatherWind HumidityBarometerVisibility
10:30 AM
Jan 27
81 °FPartly sunny.8 mph89%29.89 "Hg4 mi
10:00 AM82 °FScattered clouds.8 mph89%29.89 "Hg4 mi
9:30 AM82 °FScattered clouds.7 mph89%29.92 "Hg4 mi
9:00 AM81 °FPassing clouds.6 mph89%29.92 "Hg4 mi
8:30 AM79 °FScattered clouds.6 mph94%29.89 "Hg4 mi
8:00 AM79 °FScattered clouds.6 mph94%29.89 "Hg4 mi
7:30 AM77 °FPassing clouds.1 mph100%29.89 "Hg4 mi
7:00 AM77 °FPassing clouds.2 mph100%29.86 "Hg4 mi
6:30 AM77 °FPassing clouds.3 mph100%29.86 "Hg4 mi
6:00 AM77 °FPassing clouds.2 mph100%29.86 "Hg4 mi
5:30 AM77 °FThunderstorms. Passing clouds.3 mph100%29.86 "Hg4 mi
5:00 AM77 °FThunderstorms. Passing clouds.2 mph100%29.86 "Hg4 mi
4:30 AM77 °FPassing clouds.5 mph100%29.86 "Hg4 mi
4:00 AM77 °FPassing clouds.1 mph100%29.83 "Hg4 mi
3:30 AM77 °FPassing clouds.1 mph100%29.83 "Hg5 mi
3:00 AM77 °FPassing clouds.1 mph100%29.86 "Hg5 mi
2:30 AM79 °FPassing clouds.No wind94%29.86 "Hg5 mi
2:00 AM77 °FPassing clouds.1 mph100%29.86 "Hg5 mi
1:30 AM79 °FPassing clouds.2 mph94%29.86 "HgN/A
1:00 AM79 °FPassing clouds.1 mph94%29.89 "HgN/A
12:30 AM79 °FPassing clouds.1 mph94%29.89 "HgN/A
12:00 AM79 °FPassing clouds.2 mph94%29.89 "HgN/A
11:30 PM
Jan 26
77 °FPassing clouds.3 mph94%29.92 "HgN/A
11:00 PM77 °FPassing clouds.1 mph94%29.92 "HgN/A
10:30 PM77 °FPassing clouds.2 mph100%29.92 "HgN/A
10:00 PM77 °FPassing clouds.1 mph94%29.92 "HgN/A
9:30 PM77 °FPassing clouds.2 mph94%29.89 "HgN/A
9:00 PM77 °FPassing clouds.1 mph94%29.89 "HgN/A
8:30 PM77 °FThunderstorms. Passing clouds.1 mph94%29.89 "HgN/A
8:00 PM75 °FThunderstorms. Passing clouds.2 mph100%29.86 "HgN/A
7:30 PM75 °FThunderstorms. Passing clouds.6 mph94%29.86 "HgN/A
7:00 PM75 °FPassing clouds.3 mph94%29.83 "HgN/A
6:30 PM75 °FPassing clouds.5 mph89%29.83 "HgN/A
6:00 PM75 °FPassing clouds.5 mph94%29.83 "HgN/A
5:30 PM75 °FThunderstorms. Scattered clouds.7 mph94%29.83 "Hg5 mi
5:03 PM75 °FThunderstorms. Scattered clouds.10 mph89%29.83 "Hg5 mi
4:30 PM82 °FThunderstorms. Partly sunny.12 mph66%29.83 "Hg4 mi
4:00 PM84 °FThunderstorms. Scattered clouds.9 mph79%29.83 "HgN/A
3:30 PM84 °FThunderstorms. Scattered clouds.14 mph79%29.80 "HgN/A
3:00 PM86 °FThunderstorms. Scattered clouds.13 mph75%29.80 "HgN/A
2:30 PM88 °FThunderstorms. Scattered clouds.16 mph75%29.80 "HgN/A
2:00 PM90 °FPassing clouds.12 mph67%29.83 "HgN/A
1:30 PM88 °FPassing clouds.13 mph66%29.86 "HgN/A
1:00 PM88 °FPassing clouds.13 mph70%29.86 "HgN/A
12:30 PM88 °FPassing clouds.13 mph70%29.86 "Hg6 mi
12:00 PM88 °FScattered clouds.13 mph70%29.89 "Hg6 mi
11:30 AM88 °FScattered clouds.12 mph70%29.89 "Hg6 mi
11:00 AM86 °FScattered clouds.12 mph75%29.89 "Hg6 mi
Weather by CustomWeather, © 2014

See weather overviewHow to use our weather pages